STARLINK-30254, 57533

Orbit data source: Space-Track

STARLINK-30254, 57533 is a payload satellite owned by SpaceX/Seattle (US) in LEO that was launched on Tue, 08 Aug 2023 UTC via an FALCON 9 launch vehicle from the Air Force Western Test Range (AFWTR). Payload-class satellites include a variety of spacecraft equipped with specific instruments for various scientific and technological missions. These include communications satellites like Starlink; space stations such as the ISS; scientific satellites like the Hubble; Earth observation satellites from companies like Planet Labs, Umbra, and HawkEye 360; GPS; miniature CubeSats for education and research; and military/defense satellites.

Loading next visibility...
Identifier
57533, 2023-115N
Orbit
LEO
Country
Flag of USUS
Related business
Manufacturer
SpaceX/Seattle
Mission
Operational Commercial Communications
Bus & Motor
STARLINK V2M, Unknown motor
Mass
730 kg wet, ~700 kg dry
Launch date (UTC)
2023-08-08 (3 years ago)
Launch vehicle
FALCON 9
Launch site
Air Force Western Test Range (AFWTR)
Object type
Payload
Rocket body
Debris
Shape & HBR
Box + 2 Pan, 17.7 m
Radar Cross Section
33.884 m², Large (>1 m²)

Expand to show TLE details & history
Last TLE update: 3 days ago

TLE from 3 days ago
0 STARLINK-30254
1 57533U 23115N   26170.51991392  .00019180  00000-0  70342-3 0  9998
2 57533  43.0063 248.0760 0001375 244.6531 115.4178 15.27640048160932
Epoch: 2026-06-19T12:28Z
TLE epoch observation values (Epoch: 2026-06-19T12:28:40.562Z)
Latitude
-0.00006°
Longitude
153.15921°
Altitude
483.05 km
Speed
7.625 km/s
True Right ascension
16h 32m 18s
True Declination
0° 00' 00"
Sunlit
Object was in full shadow at epoch
Visualization orbit readout
Latitude
Unknown
Longitude
Unknown
Altitude
Unknown
Speed
Unknown
Apparent Right ascension
Unknown
Apparent Declination
Unknown
Sunlit
N/A
Visualization observer readout
Local Sidereal Time
23:07:31
Azimuth
Unknown
Elevation
Unknown
Doppler factor
Unknown
Orbital elements
Apogee altitude
485.757 km
Perigee altitude
483.87 km
Semi-major axis
6,862.95 km
Eccentricity
0.00014
Inclination
43.0063°
RAAN
248.076°
Arg. of periapsis
244.6531°
True anomaly
115.43203°
Mean anomaly
115.4178°
Eccentric anomaly
115.42492°
Mean motion
3.81748 °/min
Orbital period
94.3 mins
BSTAR
0.00070342
Loading maneuver chart data...
Computing Atmospheric mass density...
Loading historical data...
Loading historical data...
Loading historical data...
Loading historical data...
Loading historical data...
Loading historical data...
Loading historical data...

Documentation

Showing up to 5 results
|